User: anonymous   Login
Location: Allonne
(49.4086°N, 2.1143°E)
Time: 13:12:44
(UTC+00:00)
Language:

Lacrosse 5 rocket - Orbit

View from above orbital plane
View from above orbital plane
View from above satellite
View from above satellite

Ground track
Ground track

The orbit data is extracted from the following two-line orbital elements,

1 28647U 05016B   23151.77391481  .00005382  00000-0  28879-3 0  9996
2 28647  56.9936 165.3911 0107729 295.2514  63.7392 15.11650074222564
Epoch (UTC): 31 May 2023 18:34:26
Eccentricity: 0.0107729
inclination: 56.9936°
perigee height: 457 km
apogee height: 605 km
right ascension of ascending node: 165.3911°
argument of perigee: 295.2514°
revolutions per day: 15.11650074
mean anomaly at epoch: 63.7392°
orbit number at epoch: 22256

The dashed part of the orbit path shows where the satellite is in the earth's shadow,  

DLR